OK1HRA-8 Weather Reports


time (UTC)temp
C
wind
direction
speed
KPH
gust
KPH
rain 1hr
cm
rain 24hr
cm
rain mn
cm
humidity
%
barometer
mb
20260902130440 22 270 17.7 29.0 0.00 0.00 0.00 4 1004.8
20260902125925 22 247 22.5 32.2 0.00 0.00 0.00 4 1003.1
20260902125400 22 225 16.1 20.9 0.00 0.00 0.00 4 1003.5
20260902125335 22 247 19.3 33.8 0.00 0.00 0.00 4 1003.4
20260902124820 23 202 14.5 24.1 0.00 0.00 0.00 4 1006.4
20260902124305 22 225 16.1 24.1 0.00 0.00 0.00 4 1006.1
20260902123744 22 247 9.7 12.9 0.00 0.00 0.00 4 1005.4
20260902123720 22 247 14.5 25.7 0.00 0.00 0.00 4 1006.1
20260902123205 22 247 14.5 24.1 0.00 0.00 0.00 4 1005.3
20260902122650 22 225 16.1 29.0 0.00 0.00 0.00 4 1006.7
20260902122129 22 180 20.9 27.4 0.00 0.00 0.00 4 1006.0
20260902122112 22 202 12.9 25.7 0.00 0.00 0.00 4 1006.2
20260902121557 21 225 17.7 27.4 0.00 0.00 0.00 4 1006.1
20260902121036 21 202 17.7 30.6 0.00 0.00 0.00 4 1005.3
20260902120521 22 225 14.5 24.1 0.00 0.00 0.00 4 1006.6
20260902120000 23 270 17.7 24.1 0.00 0.00 0.00 4 1005.0
20260902115944 22 247 19.3 29.0 0.00 0.00 0.00 4 1004.7
20260902115423 21 225 19.3 37.0 0.00 0.00 0.00 4 1005.6
20260902114908 22 270 11.3 24.1 0.00 0.00 0.00 5 1004.5
20260902114353 22 292 16.1 32.2 0.00 0.00 0.00 4 1005.6
20260902113832 21 225 12.9 17.7 0.00 0.00 0.00 4 1006.4
20260902113816 21 225 16.1 27.4 0.00 0.00 0.00 4 1005.8
20260902113255 21 0 12.9 24.1 0.00 0.00 0.00 5 1005.0
20260902112740 22 225 12.9 22.5 0.00 0.00 0.00 5 1006.6
20260902112225 22 247 14.5 25.7 0.00 0.00 0.00 4 1005.6
20260902111704 22 225 8.0 11.3 0.00 0.00 0.00 4 1007.5
20260902111641 22 180 8.0 16.1 0.00 0.00 0.00 4 1007.8
20260902111126 21 225 14.5 27.4 0.00 0.00 0.00 4 1007.3
20260902110611 21 270 17.7 33.8 0.00 0.00 0.00 5 1003.8
20260902110049 22 225 16.1 24.1 0.00 0.00 0.00 4 1007.3
20260902110029 23 225 11.3 30.6 0.00 0.00 0.00 4 1008.2
20260902105514 22 247 8.0 19.3 0.00 0.00 0.00 4 1007.4
20260902104955 22 247 12.9 24.1 0.00 0.00 0.00 5 1005.8
20260902104434 21 247 16.1 20.9 0.00 0.00 0.00 5 1004.6
20260902104410 21 247 17.7 29.0 0.00 0.00 0.00 5 1005.4
20260902103855 21 247 14.5 27.4 0.00 0.00 0.00 5 1004.6
20260902103340 21 247 16.1 24.1 0.00 0.00 0.00 5 1006.1
20260902102819 21 225 16.1 24.1 0.00 0.00 0.00 4 1005.5
20260902102800 21 225 19.3 33.8 0.00 0.00 0.00 4 1005.5
20260902102239 21 225 9.7 19.3 0.00 0.00 0.00 4 1007.5
20260902101724 20 225 17.7 29.0 0.00 0.00 0.00 5 1006.6
20260902101203 21 225 17.7 24.1 0.00 0.00 0.00 4 1007.4
20260902101147 21 202 12.9 32.2 0.00 0.00 0.00 5 1007.2
20260902100626 20 225 17.7 30.6 0.00 0.00 0.00 5 1006.8
20260902100110 21 270 12.9 27.4 0.00 0.00 0.00 5 1006.3
20260902095555 21 225 12.9 24.1 0.00 0.00 0.00 5 1007.7
20260902095035 21 270 17.7 22.5 0.00 0.00 0.00 4 1005.1
20260902095012 21 225 14.5 27.4 0.00 0.00 0.00 5 1006.1
20260902094457 21 247 12.9 24.1 0.00 0.00 0.00 5 1004.8
20260902093942 21 270 9.7 19.3 0.00 0.00 0.00 5 1007.7
20260902093419 21 225 4.8 0.0 0.00 0.00 0.00 5 1008.2
20260902093403 20 225 12.9 24.1 0.00 0.00 0.00 5 1008.0
20260902092842 20 225 9.7 17.7 0.00 0.00 0.00 5 1008.7
20260902092327 19 247 16.1 27.4 0.00 0.00 0.00 5 1006.7
20260902091812 20 247 14.5 24.1 0.00 0.00 0.00 5 1006.3
20260902091251 20 270 9.7 11.3 0.00 0.00 0.00 5 1007.9
20260902091227 20 270 11.3 20.9 0.00 0.00 0.00 5 1008.3
20260902090712 20 270 12.9 20.9 0.00 0.00 0.00 5 1007.4
20260902090157 20 247 14.5 22.5 0.00 0.00 0.00 6 1008.4
20260902085636 20 270 11.3 14.5 0.00 0.00 0.00 5 1007.3
20260902085619 20 270 9.7 17.7 0.00 0.00 0.00 5 1007.5
20260902085059 19 270 11.3 14.5 0.00 0.00 0.00 6 1008.9
20260902084543 19 270 11.3 19.3 0.00 0.00 0.00 6 1006.7
20260902084028 18 247 12.9 19.3 0.00 0.00 0.00 6 1007.6
20260902083507 18 247 14.5 17.7 0.00 0.00 0.00 6 1008.4
20260902083450 18 225 12.9 19.3 0.00 0.00 0.00 6 1008.2
20260902082929 18 202 8.0 14.5 0.00 0.00 0.00 5 1008.4
20260902082414 18 225 12.9 19.3 0.00 0.00 0.00 5 1007.7
20260902081853 18 225 12.9 16.1 0.00 0.00 0.00 5 1008.0
20260902081836 18 225 9.7 19.3 0.00 0.00 0.00 5 1008.6
20260902081315 18 202 8.0 17.7 0.00 0.00 0.00 6 1008.3
20260902080800 17 247 8.0 16.1 0.00 0.00 0.00 6 1008.8
20260902080245 17 247 9.7 16.1 0.00 0.00 0.00 6 1006.4
20260902075724 17 202 0.0 0.0 0.00 0.00 0.00 6 1008.9
20260902075708 17 180 9.7 20.9 0.00 0.00 0.00 6 1008.6
20260902075147 17 225 8.0 14.5 0.00 0.00 0.00 6 1009.4
20260902074632 17 202 8.0 14.5 0.00 0.00 0.00 6 1008.5
20260902074117 17 225 6.4 14.5 0.00 0.00 0.00 6 1009.2
20260902073556 16 225 0.0 0.0 0.00 0.00 0.00 6 1009.2
20260902073540 16 225 11.3 17.7 0.00 0.00 0.00 6 1009.1
20260902073019 16 270 8.0 17.7 0.00 0.00 0.00 7 1009.1
20260902072504 15 225 11.3 19.3 0.00 0.00 0.00 7 1008.9
20260902071949 16 225 9.7 16.1 0.00 0.00 0.00 6 1009.0
20260902071428 15 225 8.0 11.3 0.00 0.00 0.00 7 1008.9
20260902071412 15 225 9.7 20.9 0.00 0.00 0.00 7 1008.5
20260902070857 15 225 11.3 20.9 0.00 0.00 0.00 7 1006.9
20260902070336 15 225 8.0 14.5 0.00 0.00 0.00 7 1010.8
20260902065821 15 247 9.7 19.3 0.00 0.00 0.00 7 1009.3
20260902065300 15 225 6.4 8.0 0.00 0.00 0.00 7 1008.9
20260902065244 15 247 12.9 20.9 0.00 0.00 0.00 7 1008.3
20260902064723 15 225 12.9 20.9 0.00 0.00 0.00 7 1009.5
20260902064208 15 225 12.9 19.3 0.00 0.00 0.00 7 1008.9
20260902063653 14 247 12.9 20.9 0.00 0.00 0.00 7 1008.4
20260902063132 14 247 12.9 17.7 0.00 0.00 0.00 7 1008.8
20260902063116 14 270 12.9 19.3 0.00 0.00 0.00 8 1008.8
20260902062601 13 247 14.5 20.9 0.00 0.00 0.00 8 1009.8
20260902062040 13 247 14.5 22.5 0.00 0.00 0.00 8 1009.8
20260902061525 13 270 16.1 24.1 0.00 0.00 0.00 8 1011.0
20260902061004 13 225 11.3 16.1 0.00 0.00 0.00 8 1009.6
20260902060948 13 247 14.5 22.5 0.00 0.00 0.00 8 1009.4
20260902060427 13 247 14.5 22.5 0.00 0.00 0.00 8 1009.2
20260902055912 13 247 12.9 22.5 0.00 0.00 0.00 8 1009.2
20260902055357 13 247 14.5 20.9 0.00 0.00 0.00 8 1009.7
20260902054836 12 247 16.1 19.3 0.00 0.00 0.00 8 1010.4
20260902054813 12 247 16.1 24.1 0.00 0.00 0.00 8 1010.9
20260902054258 12 270 16.1 20.9 0.00 0.00 0.00 8 1010.4
20260902053743 12 247 12.9 20.9 0.00 0.00 0.00 8 1009.6
20260902053222 12 225 8.0 12.9 0.00 0.00 0.00 8 1009.4
20260902053205 12 270 11.3 19.3 0.00 0.00 0.00 8 1009.6
20260902052644 12 247 11.3 17.7 0.00 0.00 0.00 8 1010.0
20260902052129 12 270 12.9 17.7 0.00 0.00 0.00 8 1010.4
20260902051614 12 225 14.5 19.3 0.00 0.00 0.00 8 1010.2
20260902051053 12 247 8.0 9.7 0.00 0.00 0.00 8 1010.1
20260902051029 12 225 12.9 20.9 0.00 0.00 0.00 8 1010.0
20260902050514 12 247 16.1 20.9 0.00 0.00 0.00 8 1010.5
20260902045959 12 270 16.1 20.9 0.00 0.00 0.00 8 1010.5
20260902045438 12 247 12.9 17.7 0.00 0.00 0.00 8 1010.7
20260902045414 12 247 16.1 24.1 0.00 0.00 0.00 8 1010.6
20260902044859 12 270 16.1 22.5 0.00 0.00 0.00 8 1010.7
20260902044344 12 270 16.1 20.9 0.00 0.00 0.00 8 1010.6
20260902043823 12 247 12.9 16.1 0.00 0.00 0.00 8 1010.5
20260902043807 12 270 16.1 20.9 0.00 0.00 0.00 8 1010.5
20260902043252 12 270 14.5 24.1 0.00 0.00 0.00 8 1010.2
20260902042731 12 247 14.5 20.9 0.00 0.00 0.00 8 1010.8
20260902042215 12 270 16.1 20.9 0.00 0.00 0.00 8 1010.2
20260902041654 12 270 11.3 14.5 0.00 0.00 0.00 8 1010.2
20260902041639 12 247 14.5 20.9 0.00 0.00 0.00 8 1010.2
20260902041118 12 247 14.5 20.9 0.00 0.00 0.00 8 1010.1
20260902040602 12 270 14.5 22.5 0.00 0.00 0.00 8 1009.8
20260902040047 12 270 14.5 19.3 0.00 0.00 0.00 8 1009.9
20260902035526 12 247 9.7 14.5 0.00 0.00 0.00 8 1010.0
20260902035503 12 270 12.9 19.3 0.00 0.00 0.00 8 1009.7
20260902034948 12 247 12.9 19.3 0.00 0.00 0.00 8 1009.6
20260902034433 12 247 12.9 20.9 0.00 0.00 0.00 8 1009.7
20260902033912 12 270 11.3 14.5 0.00 0.00 0.00 8 1009.8
20260902033847 12 247 12.9 19.3 0.00 0.00 0.00 8 1009.6
20260902033332 12 225 12.9 17.7 0.00 0.00 0.00 8 1009.5
20260902032817 12 247 12.9 19.3 0.00 0.00 0.00 8 1009.7
20260902032256 12 247 11.3 14.5 0.00 0.00 0.00 8 1010.1
20260902032232 12 247 12.9 19.3 0.00 0.00 0.00 8 1010.2
20260902031717 12 247 12.9 19.3 0.00 0.00 0.00 8 1009.6
20260902031202 12 270 12.9 17.7 0.00 0.00 0.00 8 1009.9
20260902030641 12 247 11.3 16.1 0.00 0.00 0.00 8 1009.6
20260902030623 12 270 12.9 17.7 0.00 0.00 0.00 8 1009.5
20260902025547 12 247 9.7 16.1 0.00 0.00 0.00 8 1009.3
20260902025026 12 270 12.9 16.1 0.00 0.00 0.00 8 1009.6
20260902025009 12 247 9.7 16.1 0.00 0.00 0.00 8 1009.6
20260902024448 12 247 9.7 12.9 0.00 0.00 0.00 8 1009.5
20260902023933 12 247 9.7 14.5 0.00 0.00 0.00 8 1009.4
20260902023418 12 270 9.7 12.9 0.00 0.00 0.00 8 1009.9
20260902022857 12 247 8.0 9.7 0.00 0.00 0.00 8 1009.7
20260902022833 12 247 11.3 17.7 0.00 0.00 0.00 8 1010.0
20260902022318 12 247 12.9 17.7 0.00 0.00 0.00 8 1009.6
20260902021803 12 247 11.3 16.1 0.00 0.00 0.00 8 1009.8
20260902021242 12 247 6.4 8.0 0.00 0.00 0.00 8 1010.4
20260902021218 12 270 11.3 14.5 0.00 0.00 0.00 8 1010.1
20260902020703 12 270 11.3 16.1 0.00 0.00 0.00 8 1010.3
20260902020148 12 247 11.3 16.1 0.00 0.00 0.00 8 1009.7
20260902015627 12 247 6.4 8.0 0.00 0.00 0.00 8 1010.2
20260902015610 12 247 9.7 14.5 0.00 0.00 0.00 8 1010.1
20260902015049 12 247 11.3 14.5 0.00 0.00 0.00 8 1010.2
20260902014534 13 247 9.7 14.5 0.00 0.00 0.00 8 1010.0
20260902014019 12 247 11.3 14.5 0.00 0.00 0.00 8 1009.9
20260902013458 13 270 9.7 12.9 0.00 0.00 0.00 8 1010.0
20260902013442 13 247 11.3 16.1 0.00 0.00 0.00 8 1009.9
20260902012921 13 270 11.3 14.5 0.00 0.00 0.00 8 1010.0
20260902012406 13 247 9.7 16.1 0.00 0.00 0.00 8 1009.9
20260902011851 13 247 11.3 14.5 0.00 0.00 0.00 8 1009.6
20260902011330 13 247 9.7 12.9 0.00 0.00 0.00 8 1009.1
20260902011316 13 270 11.3 17.7 0.00 0.00 0.00 8 1009.2
20260902010753 13 270 11.3 16.1 0.00 0.00 0.00 8 1009.3
20260902010238 13 270 12.9 17.7 0.00 0.00 0.00 8 1009.1
20260902005723 13 270 11.3 19.3 0.00 0.00 0.00 7 1008.9
20260902005202 13 270 11.3 14.5 0.00 0.00 0.00 7 1009.4
20260902005146 13 270 9.7 14.5 0.00 0.00 0.00 7 1009.6
20260902004625 13 270 14.5 19.3 0.00 0.00 0.00 8 1008.6
20260902004109 13 247 14.5 17.7 0.00 0.00 0.00 7 1009.2
20260902003554 13 247 14.5 19.3 0.00 0.00 0.00 7 1008.8
20260902003033 13 247 12.9 16.1 0.00 0.00 0.00 7 1008.8
20260902003018 13 225 16.1 20.9 0.00 0.00 0.00 7 1008.5
20260902002457 13 225 16.1 20.9 0.00 0.00 0.00 7 1009.1
20260902001941 13 270 14.5 20.9 0.00 0.00 0.00 7 1009.1
20260902001426 13 247 14.5 20.9 0.00 0.00 0.00 7 1008.5
20260902000905 13 247 12.9 17.7 0.00 0.00 0.00 7 1008.4
20260902000850 13 270 12.9 17.7 0.00 0.00 0.00 7 1008.4
20260902000337 14 247 14.5 19.3 0.00 0.00 0.00 7 1008.3
20260901235820 13 247 12.9 19.3 0.00 0.00 0.00 7 1008.5
20260901235259 14 247 14.5 20.9 0.00 0.00 0.00 7 1008.5
20260901234737 14 270 9.7 14.5 0.00 0.00 0.00 7 1008.3
20260901234722 13 247 12.9 17.7 0.00 0.00 0.00 7 1008.3
20260901234207 14 247 14.5 22.5 0.00 0.00 0.00 7 1008.6
20260901233646 13 270 14.5 22.5 0.00 0.00 0.00 7 1008.5
20260901233131 13 247 14.5 20.9 0.00 0.00 0.00 7 1008.6
20260901232609 13 247 12.9 16.1 0.00 0.00 0.00 7 1008.4
20260901232554 13 247 14.5 22.5 0.00 0.00 0.00 7 1008.7
20260901232033 13 247 12.9 19.3 0.00 0.00 0.00 7 1008.9
20260901231518 14 225 14.5 22.5 0.00 0.00 0.00 7 1009.1
20260901231003 14 270 12.9 17.7 0.00 0.00 0.00 7 1008.7
20260901230442 14 247 12.9 16.1 0.00 0.00 0.00 7 1008.0
20260901230418 14 225 12.9 17.7 0.00 0.00 0.00 7 1007.8
20260901225903 14 225 11.3 16.1 0.00 0.00 0.00 7 1007.9
20260901225348 14 225 11.3 16.1 0.00 0.00 0.00 6 1009.0
20260901224827 14 247 12.9 16.1 0.00 0.00 0.00 7 1008.9
20260901224810 14 225 11.3 20.9 0.00 0.00 0.00 7 1008.7
20260901224255 15 247 11.3 16.1 0.00 0.00 0.00 7 1007.6
20260901223734 15 247 12.9 17.7 0.00 0.00 0.00 7 1007.7
20260901223219 15 225 11.3 16.1 0.00 0.00 0.00 7 1007.8
20260901222658 15 270 9.7 14.5 0.00 0.00 0.00 7 1008.0
20260901222642 15 247 12.9 17.7 0.00 0.00 0.00 7 1007.8
20260901222121 15 225 12.9 19.3 0.00 0.00 0.00 7 1007.7
20260901221606 15 247 14.5 19.3 0.00 0.00 0.00 7 1007.6
20260901221051 15 247 12.9 17.7 0.00 0.00 0.00 6 1007.9
20260901220530 15 270 9.7 12.9 0.00 0.00 0.00 6 1007.6
20260901220507 15 247 12.9 17.7 0.00 0.00 0.00 6 1008.1
20260901215952 15 247 11.3 16.1 0.00 0.00 0.00 6 1007.8
20260901215437 15 270 9.7 16.1 0.00 0.00 0.00 6 1007.8
20260901214916 16 270 9.7 11.3 0.00 0.00 0.00 6 1007.4
20260901214859 16 270 8.0 12.9 0.00 0.00 0.00 6 1007.5
20260901214344 16 225 9.7 14.5 0.00 0.00 0.00 6 1007.8
20260901213823 16 270 9.7 16.1 0.00 0.00 0.00 6 1007.0
20260901213308 16 247 9.7 12.9 0.00 0.00 0.00 6 1006.8
20260901212747 16 270 6.4 8.0 0.00 0.00 0.00 6 1006.9
20260901212730 16 247 9.7 14.5 0.00 0.00 0.00 6 1006.6
20260901212209 16 270 9.7 16.1 0.00 0.00 0.00 6 1006.9
20260901211654 16 270 9.7 14.5 0.00 0.00 0.00 6 1006.9
20260901211133 16 270 8.0 9.7 0.00 0.00 0.00 6 1006.6
20260901211116 16 270 9.7 14.5 0.00 0.00 0.00 6 1006.7
20260901210555 16 270 9.7 14.5 0.00 0.00 0.00 6 1006.8
20260901210040 16 247 9.7 14.5 0.00 0.00 0.00 6 1006.7
20260901205525 16 247 8.0 12.9 0.00 0.00 0.00 6 1007.0
20260901205004 16 270 8.0 9.7 0.00 0.00 0.00 6 1006.8
20260901204940 16 270 8.0 12.9 0.00 0.00 0.00 6 1006.8
20260901204425 17 270 9.7 14.5 0.00 0.00 0.00 6 1006.8
20260901203910 17 270 9.7 14.5 0.00 0.00 0.00 6 1006.6
20260901203349 17 247 6.4 8.0 0.00 0.00 0.00 6 1006.7
20260901203325 17 247 9.7 14.5 0.00 0.00 0.00 6 1006.7
20260901202810 17 270 8.0 12.9 0.00 0.00 0.00 6 1006.6
20260901202255 16 247 9.7 14.5 0.00 0.00 0.00 6 1006.8
20260901201734 16 247 11.3 14.5 0.00 0.00 0.00 6 1006.4
20260901201717 16 247 9.7 14.5 0.00 0.00 0.00 6 1006.5
20260901201156 17 225 8.0 12.9 0.00 0.00 0.00 6 1007.2
20260901200641 17 247 9.7 12.9 0.00 0.00 0.00 6 1006.3
20260901200126 17 225 8.0 11.3 0.00 0.00 0.00 6 1006.0
20260901195605 17 247 8.0 9.7 0.00 0.00 0.00 6 1006.0
20260901195542 17 247 8.0 12.9 0.00 0.00 0.00 5 1006.3
20260901195027 17 247 8.0 11.3 0.00 0.00 0.00 5 1006.2
20260901194512 17 225 6.4 9.7 0.00 0.00 0.00 5 1006.7
20260901193951 17 247 4.8 6.4 0.00 0.00 0.00 5 1006.1
20260901193926 17 270 6.4 9.7 0.00 0.00 0.00 5 1006.3
20260901193411 17 247 6.4 8.0 0.00 0.00 0.00 5 1006.5
20260901192856 17 225 6.4 8.0 0.00 0.00 0.00 5 1005.8
20260901192335 17 247 4.8 4.8 0.00 0.00 0.00 5 1006.9
20260901192318 17 247 4.8 8.0 0.00 0.00 0.00 5 1006.7
20260901191803 17 225 4.8 8.0 0.00 0.00 0.00 5 1007.0
20260901191243 17 247 6.4 9.7 0.00 0.00 0.00 5 1005.9
20260901190727 17 247 6.4 8.0 0.00 0.00 0.00 5 1006.9
20260901190206 18 247 4.8 3.2 0.00 0.00 0.00 5 1006.4
20260901190150 18 225 4.8 6.4 0.00 0.00 0.00 5 1006.7
20260901185629 18 270 4.8 9.7 0.00 0.00 0.00 5 1005.4
20260901185114 18 270 6.4 11.3 0.00 0.00 0.00 5 1005.8
20260901184559 18 270 6.4 11.3 0.00 0.00 0.00 5 1005.8
20260901184038 18 270 4.8 4.8 0.00 0.00 0.00 5 1005.6
20260901184023 18 270 6.4 11.3 0.00 0.00 0.00 5 1005.5
20260901183507 18 292 6.4 9.7 0.00 0.00 0.00 5 1005.6
20260901182946 18 292 6.4 12.9 0.00 0.00 0.00 5 1005.8
20260901182431 18 270 6.4 9.7 0.00 0.00 0.00 5 1005.8
20260901181910 18 292 4.8 6.4 0.00 0.00 0.00 5 1005.7
20260901181854 18 270 6.4 11.3 0.00 0.00 0.00 5 1005.8
20260901181333 18 292 8.0 12.9 0.00 0.00 0.00 5 1005.7
20260901180814 18 270 6.4 11.3 0.00 0.00 0.00 5 1005.4
20260901180253 18 270 0.0 0.0 0.00 0.00 0.00 5 1005.6
20260901180237 18 270 4.8 9.7 0.00 0.00 0.00 5 1005.4
20260901175716 19 270 0.0 4.8 0.00 0.00 0.00 5 1004.9
20260901175201 19 270 0.0 0.0 0.00 0.00 0.00 5 1004.9
20260901174646 19 247 0.0 0.0 0.00 0.00 0.00 5 1005.0
20260901174125 19 247 0.0 0.0 0.00 0.00 0.00 4 1004.7
20260901174107 19 270 0.0 4.8 0.00 0.00 0.00 4 1004.7
20260901173546 20 270 4.8 9.7 0.00 0.00 0.00 4 1005.2
20260901173031 20 270 4.8 9.7 0.00 0.00 0.00 4 1005.2
20260901172510 20 270 4.8 6.4 0.00 0.00 0.00 4 1004.5
20260901172451 20 270 8.0 12.9 0.00 0.00 0.00 4 1005.0
20260901171931 20 270 8.0 12.9 0.00 0.00 0.00 4 1005.2
20260901171416 20 270 11.3 19.3 0.00 0.00 0.00 4 1004.8
20260901170854 20 270 9.7 12.9 0.00 0.00 0.00 4 1005.2
20260901170837 20 270 8.0 17.7 0.00 0.00 0.00 4 1005.1
20260901170316 20 270 8.0 16.1 0.00 0.00 0.00 4 1004.5
20260901165801 20 270 9.7 17.7 0.00 0.00 0.00 4 1003.9
20260901165246 20 270 11.3 19.3 0.00 0.00 0.00 4 1003.8
20260901164725 21 270 14.5 19.3 0.00 0.00 0.00 4 1004.0
20260901164710 21 270 8.0 22.5 0.00 0.00 0.00 4 1003.9
20260901164155 21 270 9.7 17.7 0.00 0.00 0.00 4 1005.0
20260901163640 21 270 4.8 11.3 0.00 0.00 0.00 4 1005.0
20260901163119 21 270 4.8 8.0 0.00 0.00 0.00 4 1005.2
20260901162557 21 270 0.0 0.0 0.00 0.00 0.00 4 1005.8
20260901162542 21 270 6.4 11.3 0.00 0.00 0.00 4 1005.5
20260901162027 21 270 4.8 8.0 0.00 0.00 0.00 4 1005.6
20260901161506 20 270 8.0 16.1 0.00 0.00 0.00 4 1004.4
20260901160950 20 270 9.7 17.7 0.00 0.00 0.00 4 1004.6
20260901160430 20 247 9.7 14.5 0.00 0.00 0.00 4 1004.4
20260901160413 20 270 14.5 22.5 0.00 0.00 0.00 4 1004.1
20260901155852 21 247 14.5 20.9 0.00 0.00 0.00 4 1005.6
20260901155337 21 225 14.5 24.1 0.00 0.00 0.00 4 1003.1
20260901154822 21 247 16.1 25.7 0.00 0.00 0.00 4 1004.2
20260901154301 21 247 16.1 20.9 0.00 0.00 0.00 4 1003.8
20260901154245 21 270 16.1 24.1 0.00 0.00 0.00 4 1003.7
20260901153724 21 247 12.9 24.1 0.00 0.00 0.00 4 1003.4
20260901153209 21 247 17.7 29.0 0.00 0.00 0.00 4 1002.8
20260901152654 22 270 14.5 22.5 0.00 0.00 0.00 4 1004.6
20260901152133 21 315 16.1 19.3 0.00 0.00 0.00 4 1004.4
20260901152117 21 270 12.9 22.5 0.00 0.00 0.00 4 1004.8
20260901151556 21 315 8.0 14.5 0.00 0.00 0.00 4 1004.2
20260901151041 22 247 4.8 8.0 0.00 0.00 0.00 4 1006.3
20260901150526 21 270 11.3 20.9 0.00 0.00 0.00 4 1005.6
20260901150005 21 247 11.3 14.5 0.00 0.00 0.00 4 1003.8
20260901145942 21 225 14.5 22.5 0.00 0.00 0.00 4 1003.6
20260901145427 22 315 12.9 20.9 0.00 0.00 0.00 4 1002.4
20260901144912 22 270 9.7 17.7 0.00 0.00 0.00 4 1004.0
20260901144351 22 270 4.8 8.0 0.00 0.00 0.00 4 1003.8
20260901144332 22 247 11.3 20.9 0.00 0.00 0.00 4 1003.2
20260901143811 22 270 11.3 22.5 0.00 0.00 0.00 4 1003.9
20260901143257 21 247 9.7 16.1 0.00 0.00 0.00 4 1006.9
20260901142735 21 270 4.8 4.8 0.00 0.00 0.00 4 1005.1
20260901142718 21 270 11.3 22.5 0.00 0.00 0.00 4 1005.2
20260901142157 21 270 14.5 25.7 0.00 0.00 0.00 4 1003.1
20260901141642 21 247 12.9 22.5 0.00 0.00 0.00 4 1002.9
20260901141127 22 270 4.8 11.3 0.00 0.00 0.00 4 1005.9
20260901140606 21 270 3.2 4.8 0.00 0.00 0.00 4 1005.7
20260901140550 21 270 14.5 20.9 0.00 0.00 0.00 4 1005.5
20260901140029 21 270 16.1 24.1 0.00 0.00 0.00 4 1005.0
20260901135514 21 270 16.1 24.1 0.00 0.00 0.00 4 1004.5
20260901134959 20 292 11.3 20.9 0.00 0.00 0.00 5 1003.1
20260901134438 21 270 12.9 16.1 0.00 0.00 0.00 4 1005.5
20260901134422 21 315 11.3 20.9 0.00 0.00 0.00 5 1005.3
20260901133907 21 315 9.7 16.1 0.00 0.00 0.00 4 1004.6
20260901133346 20 270 12.9 24.1 0.00 0.00 0.00 4 1004.8
20260901132831 21 247 14.5 24.1 0.00 0.00 0.00 4 1004.9
20260901132310 21 270 8.0 11.3 0.00 0.00 0.00 4 1004.7
20260901132254 21 270 16.1 30.6 0.00 0.00 0.00 4 1004.5
20260901131733 22 225 9.7 17.7 0.00 0.00 0.00 4 1006.5
20260901131218 22 315 8.0 16.1 0.00 0.00 0.00 4 1005.0